Regional Weather Roundup
Issued by NWS Wilmington, NC

Home | Current Version | Previous Version | Text Only | Print | Product List | Glossary On
Versions: 1 2 3 4 5 6 7 8 9 10 11 12 13 14 15 16 17 18 19 20 21 22 23 24 25 26 27 28 29 30 31 32 33 34 35 36 37 38 39 40 41 42 43 44 45 46 47 48 49 50
000
ASUS42 KILM 301213
RWRILM
RWRILM
REGIONAL HOURLY WEATHER ROUNDUP
NATIONAL WEATHER SERVICE WILMINGTON NC
800 AM EDT THU JUL 30 2015

NOTE: "FAIR" INDICATES FEW OR NO CLOUDS BELOW 12,000 FEET WITH NO
SIGNIFICANT WEATHER AND/OR OBSTRUCTIONS TO VISIBILITY.

...............WFO WILMINGTON COUNTY WARNING AREA...............

......COASTAL NC AND SC COUNTIES......

CITY           SKY/WX    TMP DP  RH WIND       PRES   REMARKS
WILMINGTON     SUNNY     75  72  90 N6        29.94R
N MYRTLE BEACH SUNNY     75  73  93 N5        29.95R
MYRTLE BEACH   SUNNY     77  72  83 N9        29.96R

......INLAND NC AND SC COUNTIES.......

CITY           SKY/WX    TMP DP  RH WIND       PRES   REMARKS
LUMBERTON      SUNNY     79  71  76 CALM      29.95S
ELIZABETHTOWN  SUNNY     75  71  88 CALM      29.96S
WHITEVILLE     SUNNY     75  71  87 CALM      29.96R
FLORENCE       SUNNY     78  72  81 CALM      29.96R
DARLINGTON     SUNNY     77  68  73 CALM      29.98R

....................REST OF NORTH CAROLINA......................

.........EASTERN NC.........

CITY           SKY/WX    TMP DP  RH WIND       PRES   REMARKS
CAPE HATTERAS  LGT RAIN  81  77  88 E5        29.95R
JACKSONVILLE   CLOUDY    73  66  78 CALM      29.95S
MOREHEAD CITY  SUNNY     83  79  88 VRB5      29.93R HX  94
KENANSVILLE    SUNNY     74  72  92 CALM      29.97R
NEW BERN       PTSUNNY   78  75  90 NE7       29.96R
ELIZABETH CITY SUNNY     80  76  87 NE5       29.96S

.........CENTRAL NC.........

CITY           SKY/WX    TMP DP  RH WIND       PRES   REMARKS
RALEIGH DURHAM PTSUNNY   77  71  82 W3        29.97S
ROCKY MOUNT    SUNNY     77  73  87 CALM      29.97S
ROANOKE RAPIDS NOT AVBL
FAYETTEVILLE   SUNNY     78  71  79 CALM      29.96R
HOFFMAN        SUNNY     76  71  82 SW1       29.96R

.........WESTERN NC.........

CITY           SKY/WX    TMP DP  RH WIND       PRES   REMARKS
CHARLOTTE      MOSUNNY   79  73  82 CALM      29.98S
GREENSBORO     PTSUNNY   77  74  90 SW6       29.97S
HICKORY        NOT AVBL
BOONE          NOT AVBL
ASHEVILLE      NOT AVBL

.....................REST OF SOUTH CAROLINA.....................

.........EASTERN SC.........

CITY           SKY/WX    TMP DP  RH WIND       PRES   REMARKS
CHARLESTON     MOSUNNY   79  75  87 N5        29.95R
BEAUFORT MCAS  MOSUNNY   80  76  87 N5        29.95R
HILTON HEAD    SUNNY     81  75  83 CALM      29.95R

.........CENTRAL SC.........

CITY           SKY/WX    TMP DP  RH WIND       PRES   REMARKS
COLUMBIA       MOSUNNY   80  72  76 W3        29.96R
ORANGEBURG     SUNNY     78  75  90 CALM      29.96R
SUMTER SHAW    SUNNY     77  71  82 CALM      29.95R

.........WESTERN SC.........

CITY           SKY/WX    TMP DP  RH WIND       PRES   REMARKS
GREENVILLE     NOT AVBL
ROCK HILL      SUNNY     78  74  87 CALM      29.98R
ANDERSON       SUNNY     78  75  90 CALM      30.00R
CLEMSON        NOT AVBL
GREENWOOD      SUNNY     77  74  90 NW5       30.00R


...................COASTAL AND OFFSHORE REPORTS..................

................LOCAL PIERS AND NC RESERVE................


STATION/POSITION TIME  SKY/WX   TEMP    WIND        PRES    VSBY
                                AIR SEA DIR/SP/G
                 (UTC)          (F)     (DEG/KT/KT) (MB)    (MI)
JOHNY MRCER PIER 1100            74                   N/A
NC RESRV MASNBRO NOT AVBL
OCEAN CREST PIER NOT AVBL
SPRINGMAID  PIER 1100            75                   N/A


................COASTAL AND OFFSHORE BUOYS................


STATION/POSITION TIME  SKY/WX   TEMP    WIND        PRES    VSBY
                                AIR SEA DIR/SP/G
                 (UTC)          (F)     (DEG/KT/KT) (MB)    (MI)
DIMNDSHOAL 41025 1150            84 85  180/ 14/ 16 1014.0R
WVE H/P(F/S)=  4/ 9 WND WVE H/P(F/S)=  3/ 5 SWL H/P/D(F/S/D)=  2/ 90/ 9

CAPE LOOKOUT     1200            82     150/  7/  7 1013.1R
ONSLOW BAY 41036 NOT AVBL
5 WRITEBCH 41038 1108            77 82  350/ 10/ 12 1013.5R
MASONBORO  41110 1119               82                N/A
WVE H/P(F/S)=  2/ 6 WND WVE H/P(F/S)=  2/ 6

WILM HARBR 41108 1111               83                N/A
WVE H/P(F/S)=  3/ 8 WND WVE H/P(F/S)=  3/ 8

27WRITEBCH 41037 1100            77 82   20/  6/ 10   N/A
FRYING PAN 41013 1150            82 84   30/  8/ 10 1013.8R
WVE H/P(F/S)=  3/ 9 WND WVE H/P(F/S)=  2/ 4 SWL H/P/D(F/S/D)=  3/160/ 9

SUNST NRSH 41024 1108            76      10/ 10/ 12 1013.4R
CAPRS NRSH 41029 1108            80      20/  8/ 10 1013.6R
EDISTO     41004 1150            82 84   10/ 10/ 14 1012.9R
WVE H/P(F/S)=  4/ 8 WND WVE H/P(F/S)=  2/ 4 SWL H/P/D(F/S/D)=  3/ 8



..........OFFSHORE BUOYS BEYOND 100 NM OFFSHORE...........
.....IN A TRIANGLE---HAT TO BERMUDA TO BAHAMAS TO HAT.....


STATION/POSITION TIME  SKY/WX   TEMP    WIND        PRES    VSBY
                                AIR SEA DIR/SP/G
                 (UTC)          (F)     (DEG/KT/KT) (MB)    (MI)
150E HAT   41001 1100            81 83  180/ 16/ 17 1015.9R
W BERMUDA  41048 1150            81 81  210/  6/  8 1019.1R
WVE H/P(F/S)=  4/ 6 WND WVE H/P(F/S)=  2/ 4 SWL H/P/D(F/S/D)=  3/280/ 6

ATLANTIC S 41049 1150            84 85  180/  4/  6 1022.0R
WVE H/P(F/S)=  3/10 SWL H/P/D(F/S/D)=  3/ 90/10

E BAHAMAS  41046 1150            84 85  120/ 12/ 14 1019.6R
WVE H/P(F/S)=  4/ 8 WND WVE H/P(F/S)=  2/ 5 SWL H/P/D(F/S/D)=  3/100/ 8

NE BAHAMAS 41047 1150            83 84  170/ 12/ 16 1018.8R
WVE H/P(F/S)=  3/ 7 WND WVE H/P(F/S)=  2/ 5 SWL H/P/D(F/S/D)=  3/150/ 7

120E CANVRL41010 1120            82 84  260/ 16/ 19 1014.1R

END


USA.gov is the U.S. government's official web portal to all federal, state and local government web resources and services.